Location: Lahas
(43.5538°N, 0.8906°E)
Time: 10:42:59
(UTC+00:00)

SL-08 R/B - Pass Details

Date: 15 May 2026
Orbit: 666 x 729 km, 98.5° (Epoch: 6 June)

Event Time Altitude Azimuth Distance (km) Brightness Sun altitude
Rises 19:43:02 0° 23° (NNE) 3,121 6.8 -5.3°
Reaches altitude 10° 19:45:34 10° 34° (NE) 2,186 5.9 -5.7°
Maximum altitude 19:49:47 30° 96° (E) 1,240 4.2 -6.3°
Drops below altitude 10° 19:53:53 10° 157° (SSE) 2,136 5.3 -6.9°
Sets 19:56:20 0° 168° (SSE) 3,036 6.2 -7.3°
Enters shadow 19:56:29 -1° 169° (S) 3,093 6.2 -7.3°
